Birmingham, AL

6:05 PM CST on January 23, 2018 (GMT -0600)
Birmingham International

Weather History for KBHM - December, 2012

Change the Weather History Date:

Tuesday, December 4, 2012

  Actual Average Record
Temperature  
Mean Temperature 63 °F 49 °F  
Max Temperature 71 °F 59 °F 78 °F (1998)
Min Temperature 54 °F 38 °F 20 °F (1989)
Degree Days  
Heating Degree Days 2 17  
Month to date heating degree days 16 65  
Since 1 July heating degree days 551 523  
Growing Degree Days 14 (Base 50)    
Moisture  
Dew Point 58 °F    
Average Humidity 86    
Maximum Humidity 100    
Minimum Humidity 72    
Precipitation  
Precipitation 0.10 in 0.17 in 1.93 in (1912)
Month to date precipitation 0.10 0.67  
Year to date precipitation 42.97 49.94  
Snow  
Snow 0.00 in 0.00 in - ()
Month to date snowfall 0.0 0.0  
Since 1 July snowfall 0.0 0.0  
Snow Depth 0.00 in    
Sea Level Pressure  
Sea Level Pressure 30.24 in    
Wind  
Wind Speed 5 mph (SSW)    
Max Wind Speed 16 mph    
Max Gust Speed 20 mph    
Visibility 9 miles    
Events Rain    
T = Trace of Precipitation, MM = Missing Value Source: NWS Daily Summary

Daily Weather History Graph

Daily Weather History Graph

Search for Another Location

Airport or City:

Trip Planner

Search our weather history database for the weather conditions in past years. The results will help you decide how hot, cold, wet, or windy it might be!

Date:

Astronomy

Dec. 04, 2012 Rise Set
Actual Time 6:36 AM CST 4:38 PM CST
Civil Twilight 6:08 AM CST 5:05 PM CST
Nautical Twilight 5:37 AM CST 5:36 PM CST
Astronomical Twilight 5:07 AM CST 6:06 PM CST
Moon 10:14 PM CST (12/4) 10:39 AM CST (12/4)
Length of Visible Light 10h 57m
Length of Day
10h 02m
Waning Gibbous, 69% of the Moon is Illuminated
Dec 4
Waning Gibbous
Dec 6
Last Quarter
Dec 13
New
Dec 19
First Quarter
Dec 28
Full

Hourly Weather History & Observations

Time (CST) Temp. Dew Point Humidity Pressure Visibility Wind Dir Wind Speed Gust Speed Precip Events Conditions
12:53 AM 57.9 °F 52.0 °F 81% 30.23 in 10.0 mi Calm Calm - N/A   Clear
1:53 AM 57.9 °F 52.0 °F 81% 30.23 in 10.0 mi Calm Calm - N/A   Clear
2:53 AM 60.1 °F 52.0 °F 75% 30.22 in 10.0 mi SSW 3.5 mph - N/A   Overcast
3:53 AM 60.1 °F 51.1 °F 72% 30.23 in 10.0 mi South 4.6 mph - N/A   Mostly Cloudy
4:53 AM 57.0 °F 50.0 °F 77% 30.24 in 10.0 mi Calm Calm - N/A   Partly Cloudy
5:53 AM 57.0 °F 50.0 °F 77% 30.26 in 10.0 mi Calm Calm - N/A   Mostly Cloudy
6:53 AM 60.1 °F 52.0 °F 75% 30.27 in 10.0 mi South 3.5 mph - N/A   Overcast
7:53 AM 61.0 °F 54.0 °F 78% 30.29 in 10.0 mi SE 4.6 mph - N/A   Mostly Cloudy
8:40 AM 62.6 °F 55.4 °F 77% 30.31 in 10.0 mi SSW 3.5 mph - N/A   Overcast
8:53 AM 64.0 °F 57.0 °F 78% 30.30 in 10.0 mi Variable 3.5 mph - N/A   Overcast
9:43 AM 66.2 °F 60.8 °F 83% 30.31 in 10.0 mi South 10.4 mph - N/A   Mostly Cloudy
9:53 AM 66.9 °F 60.1 °F 79% 30.30 in 10.0 mi South 5.8 mph - N/A   Overcast
10:40 AM 66.2 °F 60.8 °F 83% 30.30 in 10.0 mi SW 9.2 mph - N/A   Overcast
10:53 AM 66.9 °F 60.1 °F 79% 30.29 in 10.0 mi SSW 13.8 mph - N/A   Mostly Cloudy
11:07 AM 66.2 °F 60.8 °F 83% 30.29 in 10.0 mi SSW 11.5 mph - N/A   Overcast
11:53 AM 69.1 °F 60.1 °F 73% 30.25 in 10.0 mi South 12.7 mph - N/A   Mostly Cloudy
12:01 PM 69.8 °F 60.8 °F 73% 30.26 in 10.0 mi South 15.0 mph - N/A   Mostly Cloudy
12:53 PM 70.0 °F 60.1 °F 71% 30.22 in 10.0 mi South 10.4 mph - N/A   Mostly Cloudy
1:00 PM 69.8 °F 60.8 °F 73% 30.24 in 10.0 mi SSW 11.5 mph - N/A   Mostly Cloudy
1:27 PM 69.8 °F 60.8 °F 73% 30.23 in 10.0 mi SW 6.9 mph - N/A   Overcast
1:33 PM 69.8 °F 60.8 °F 73% 30.23 in 10.0 mi SSW 10.4 mph - N/A   Overcast
1:53 PM 70.0 °F 60.1 °F 71% 30.21 in 10.0 mi South 12.7 mph - N/A   Overcast
2:53 PM 68.0 °F 60.1 °F 76% 30.21 in 10.0 mi SW 8.1 mph - N/A   Overcast
3:53 PM 68.0 °F 60.1 °F 76% 30.20 in 10.0 mi SSW 8.1 mph - 0.00 in Rain Light Rain
4:09 PM 66.2 °F 60.8 °F 83% 30.21 in 10.0 mi South 12.7 mph - 0.00 in   Mostly Cloudy
4:53 PM 66.9 °F 60.1 °F 79% 30.20 in 10.0 mi SSW 6.9 mph - 0.00 in   Overcast
5:53 PM 64.9 °F 61.0 °F 87% 30.22 in 7.0 mi Calm Calm - 0.00 in Rain Light Rain
6:53 PM 63.0 °F 62.1 °F 97% 30.23 in 7.0 mi Calm Calm - 0.04 in Rain Light Rain
7:53 PM 63.0 °F 62.1 °F 97% 30.23 in 10.0 mi SE 3.5 mph - 0.04 in   Overcast
8:53 PM 63.0 °F 60.1 °F 90% 30.22 in 10.0 mi Calm Calm - N/A   Overcast
9:51 PM 62.6 °F 60.8 °F 94% 30.23 in 8.0 mi NNW 6.9 mph - N/A   Overcast
9:53 PM 62.1 °F 61.0 °F 96% 30.22 in 8.0 mi NNW 6.9 mph - N/A   Mostly Cloudy
10:07 PM 62.6 °F 60.8 °F 94% 30.23 in 7.0 mi Calm Calm - N/A   Mostly Cloudy
10:53 PM 62.1 °F 61.0 °F 96% 30.21 in 6.0 mi Calm Calm - 0.02 in   Mostly Cloudy
11:11 PM 60.8 °F 60.8 °F 100% 30.22 in 4.0 mi Calm Calm - N/A   Mostly Cloudy
11:53 PM 61.0 °F 60.1 °F 97% 30.19 in 3.0 mi SE 3.5 mph - N/A   Overcast